H1 CPF 2 COD 2024 5 4 1 125 1 galileo215 NONE
H2 1707901 7215 43055 2024 5 3 23 59 42 2024 5 8 23 59 42 900 1 1 0 0 0 1
H5 0.5555
H9
10 0 60435  37782.000000  0  -24761847.278 -10672008.562 -12218534.519
10 0 60435  38682.000000  0  -25564497.553 -11261423.619  -9795871.308
10 0 60435  39582.000000  0  -26224051.880 -11663007.318  -7251393.473
10 0 60435  40482.000000  0  -26711580.310 -11894193.125  -4616739.030
10 0 60435  41382.000000  0  -27002169.670 -11977341.358  -1924670.168
10 0 60435  42282.000000  0  -27075724.533 -11938976.773    791334.295
10 0 60435  43182.000000  0  -26917620.244 -11808896.569   3497495.510
10 0 60435  44082.000000  0  -26519187.294 -11619176.862   6160155.067
10 0 60435  44982.000000  0  -25878011.865 -11403108.891   8746194.037
10 0 60435  45882.000000  0  -24998043.018 -11194098.432  11223445.304
10 0 60435  46782.000000  0  -23889503.083 -11024563.045  13561094.039
10 0 60435  47682.000000  0  -22568604.030 -10924861.851  15730061.267
10 0 60435  48582.000000  0  -21057078.632 -10922291.508  17703365.759
10 0 60435  49482.000000  0  -19381541.078 -11040179.955  19456459.720
10 0 60435  50382.000000  0  -17572696.988 -11297106.431  20967534.135
10 0 60435  51282.000000  0  -15664427.529 -11706272.295  22217789.975
10 0 60435  52182.000000  0  -13692776.221 -12275042.453  23191671.955
10 0 60435  53082.000000  0  -11694870.071 -13004671.829  23877061.956
10 0 60435  53982.000000  0   -9707808.712 -13890225.538  24265429.756
10 0 60435  54882.000000  0   -7767556.204 -14920695.363  24351939.222
10 0 60435  55782.000000  0   -5907870.069 -16079308.951  24135508.659
10 0 60435  56682.000000  0   -4159300.947 -17344022.177  23618824.569
10 0 60435  57582.000000  0   -2548294.088 -18688179.339  22808308.621
10 0 60435  58482.000000  0   -1096420.671 -20081320.606  21714038.225
10 0 60435  59382.000000  0     180237.083 -21490111.532  20349621.634
10 0 60435  60282.000000  0    1271527.839 -22879365.589  18732029.086
10 0 60435  61182.000000  0    2173486.384 -24213127.740  16881382.013
10 0 60435  62082.000000  0    2888394.250 -25455785.157  14820702.901
10 0 60435  62982.000000  0    3424643.919 -26573170.276  12575628.875
10 0 60435  63882.000000  0    3796410.963 -27533621.611  10174092.533
10 0 60435  64782.000000  0    4023144.502 -28308969.068   7645974.022
10 0 60435  65682.000000  0    4128892.077 -28875412.822   5022728.693
10 0 60435  66582.000000  0    4141480.242 -29214268.165   2336995.017
10 0 60435  67482.000000  0    4091576.731 -29312552.943   -377812.294
10 0 60435  68382.000000  0    4011663.765 -29163399.148  -3087918.819
10 0 60435  69282.000000  0    3934954.877 -28766275.735  -5759611.360
10 0 60435  70182.000000  0    3894289.374 -28127015.711  -8359657.949
10 0 60435  71082.000000  0    3921039.281 -27257646.671 -10855721.629
10 0 60435  71982.000000  0    4044063.157 -26176030.135 -13216762.831
10 0 60435  72882.000000  0    4288739.721 -24905321.039 -15413425.293
10 0 60435  73782.000000  0    4676111.655 -23473264.366 -17418400.731
10 0 60435  74682.000000  0    5222166.507 -21911350.998 -19206767.754
10 0 60435  75582.000000  0    5937277.261 -20253859.214 -20756300.857
10 0 60435  76482.000000  0    6825820.152 -18536811.876 -22047745.729
10 0 60435  77382.000000  0    7885981.731 -16796881.871 -23065057.534
10 0 60435  78282.000000  0    9109761.259 -15070280.018 -23795599.306
10 0 60435  79182.000000  0   10483168.409 -13391660.124 -24230298.078
10 0 60435  80082.000000  0   11986610.168 -11793075.337 -24363756.882
10 0 60435  80982.000000  0   13595454.906 -10303018.291 -24194321.309
10 0 60435  81882.000000  0   15280756.102  -8945574.929 -23724099.813
10 0 60435  82782.000000  0   17010113.174  -7739718.341 -22958937.544
10 0 60435  83682.000000  0   18748642.658  -6698764.550 -21908344.008
10 0 60435  84582.000000  0   20460029.459  -5830007.185 -20585375.406
10 0 60435  85482.000000  0   22107625.434  -5134542.344 -19006473.074
10 0 60435  86382.000000  0   23655561.039  -4607289.065 -17191259.928
10 0 60436    882.000000  0   25069835.356  -4237204.684 -15162297.388
10 0 60436   1782.000000  0   26319350.421  -4007688.292 -12944805.698
10 0 60436   2682.000000  0   27376857.580  -3897159.585 -10566351.080
10 0 60436   3582.000000  0   28219786.226  -3879794.941  -8056503.524
10 0 60436   4482.000000  0   28830928.966  -3926397.590  -5446469.470
10 0 60436   5382.000000  0   29198961.715  -4005374.522  -2768703.899
10 0 60436   6282.000000  0   29318782.358  -4083789.395    -56506.665
10 0 60436   7182.000000  0   29191657.480  -4128458.364   2656391.828
10 0 60436   8082.000000  0   28825172.442  -4107054.315   5336250.464
10 0 60436   8982.000000  0   28232986.419  -3989184.784   7949737.456
10 0 60436   9882.000000  0   27434400.072  -3747409.620  10464345.305
10 0 60436  10782.000000  0   26453749.372  -3358166.329  12848795.505
10 0 60436  11682.000000  0   25319644.638  -2802573.957  15073427.872
10 0 60436  12582.000000  0   24064078.644  -2067090.200  17110569.666
10 0 60436  13482.000000  0   22721431.762  -1144001.001  18934879.877
10 0 60436  14382.000000  0   21327405.324    -31727.194  20523664.421
10 0 60436  15282.000000  0   19917916.609   1265061.552  21857158.350
10 0 60436  16182.000000  0   18527990.049   2735529.153  22918771.588
10 0 60436  17082.000000  0   17190679.351   4362949.452  23695295.202
10 0 60436  17982.000000  0   15936054.228   6125167.955  24177065.660
10 0 60436  18882.000000  0   14790283.427   7995234.638  24358085.092
10 0 60436  19782.000000  0   13774842.692   9942188.167  24236096.057
10 0 60436  20682.000000  0   12905872.391  11931967.117  23812609.914
10 0 60436  21582.000000  0   12193704.880  13928419.834  23092888.409
10 0 60436  22482.000000  0   11642576.327  15894381.448  22085878.695
10 0 60436  23382.000000  0   11250531.976  17792784.472  20804102.535
10 0 60436  24282.000000  0   11009527.788  19587768.309  19263501.013
10 0 60436  25182.000000  0   10905725.200  21245753.037  17483236.623
10 0 60436  26082.000000  0   10919969.746  22736443.901  15485455.141
10 0 60436  26982.000000  0   11028438.452  24033735.106  13295010.202
10 0 60436  27882.000000  0   11203435.668  25116484.638  10939153.969
10 0 60436  28782.000000  0   11414312.263  25969135.848   8447197.740
10 0 60436  29682.000000  0   11628479.285  26582166.367   5850146.734
10 0 60436  30582.000000  0   11812484.140  26952350.294   3180313.639
10 0 60436  31482.000000  0   11933115.427  27082825.499    470915.786
10 0 60436  32382.000000  0   11958501.611  26982963.989  -2244338.956
10 0 60436  33282.000000  0   11859168.942  26668049.486  -4931672.337
10 0 60436  34182.000000  0   11609025.298  26158772.428  -7557656.612
10 0 60436  35082.000000  0   11186238.987  25480558.333 -10089630.864
10 0 60436  35982.000000  0   10573984.831  24662750.698 -12496107.501
10 0 60436  36882.000000  0    9761034.075  23737674.164 -14747163.865
10 0 60436  37782.000000  0    8742169.561  22739607.399 -16814814.046
10 0 60436  38682.000000  0    7518413.095  21703697.962 -18673356.310
10 0 60436  39582.000000  0    6097057.860  20664853.199 -20299691.864
10 0 60436  40482.000000  0    4491504.796  19656641.916 -21673611.060
10 0 60436  41382.000000  0    2720908.027  18710241.224 -22778043.569
10 0 60436  42282.000000  0     809640.361  17853461.484 -23599269.503
10 0 60436  43182.000000  0   -1213404.503  17109879.806 -24127088.963
10 0 60436  44082.000000  0   -3315651.342  16498109.155 -24354947.986
10 0 60436  44982.000000  0   -5461798.230  16031225.859 -24280019.396
10 0 60436  45882.000000  0   -7614857.114  15716373.344 -23903237.604
10 0 60436  46782.000000  0   -9737247.764  15554554.450 -23229286.944
10 0 60436  47682.000000  0  -11791911.072  15540618.761 -22266543.686
10 0 60436  48582.000000  0  -13743407.037  15663445.326 -21026972.399
10 0 60436  49482.000000  0  -15558963.275  15906315.024 -19525977.922
10 0 60436  50382.000000  0  -17209441.378  16247460.937 -17782214.676
10 0 60436  51282.000000  0  -18670191.020  16660779.467 -15817355.638
10 0 60436  52182.000000  0  -19921765.151  17116679.953 -13655823.733
10 0 60436  53082.000000  0  -20950474.008  17583046.166 -11324488.937
10 0 60436  53982.000000  0  -21748760.633  18026279.557  -8852334.787
10 0 60436  54882.000000  0  -22315386.180  18412391.515  -6270098.403
10 0 60436  55782.000000  0  -22655419.210  18708110.340  -3609888.469
10 0 60436  56682.000000  0  -22780029.345  18881968.096   -904785.927
10 0 60436  57582.000000  0  -22706091.836  18905333.263   1811567.605
10 0 60436  58482.000000  0  -22455615.476  18753356.639   4505388.545
10 0 60436  59382.000000  0  -22055011.862  18405800.757   7143171.913
10 0 60436  60282.000000  0  -21534228.981  17847726.718   9692108.454
10 0 60436  61182.000000  0  -20925776.360  17070016.711  12120493.105
10 0 60436  62082.000000  0  -20263672.429  16069715.792  14398119.657
10 0 60436  62982.000000  0  -19582347.185  14850182.084  16496656.680
10 0 60436  63882.000000  0  -18915534.631  13421040.601  18390000.016
10 0 60436  64782.000000  0  -18295189.762  11797942.048  20054597.470
10 0 60436  65682.000000  0  -17750464.090  10002134.043  21469741.681
10 0 60436  66582.000000  0  -17306771.855   8059858.103  22617827.562
10 0 60436  67482.000000  0  -16984976.190   6001591.153  23484571.156
10 0 60436  68382.000000  0  -16800720.766   3861155.171  24059187.231
10 0 60436  69282.000000  0  -16763927.864   1674722.720  24334523.435
10 0 60436  70182.000000  0  -16878478.610   -520250.668  24307149.393
10 0 60436  71082.000000  0  -17142085.418  -2686133.981  23977399.612
10 0 60436  71982.000000  0  -17546360.650  -4786233.591  23349369.695
10 0 60436  72882.000000  0  -18077079.396  -6785876.806  22430865.853
10 0 60436  73782.000000  0  -18714628.150  -8653432.321  21233308.309
10 0 60436  74682.000000  0  -19434625.397 -10361235.771  19771589.751
99